This is the latest recevied weather packets stored in our database for station/object OM5AST-13. If no packets are shown the sender has not sent any weather packets the latest 10 day(s).
| Time | Temp. | Humidity | Pressure | Rain* | Wind** | Luminosity | Snow |
|---|---|---|---|---|---|---|---|
| 1788135835 | 71° F | 55% | - | 0 in | - | 0 W/m² | - |
| 1788134635 | 71° F | 55% | - | 0 in | - | 0 W/m² | - |
| 1788133435 | 72° F | 54% | - | 0 in | - | 0 W/m² | - |
| 1788132235 | 73° F | 53% | - | 0 in | - | 0 W/m² | - |
| 1788131035 | 73° F | 52% | - | 0 in | - | 0 W/m² | - |
| 1788129835 | 73° F | 51% | - | 0 in | - | 0 W/m² | - |
| 1788128635 | 73° F | 51% | - | 0 in | - | 0 W/m² | - |
| 1788127435 | 74° F | 49% | - | 0 in | - | 0 W/m² | - |
| 1788126235 | 75° F | 49% | - | 0 in | - | 0 W/m² | - |
| 1788125035 | 75° F | 47% | - | 0 in | - | 0 W/m² | - |
| 1788123835 | 76° F | 46% | - | 0 in | - | 0 W/m² | - |
| 1788122635 | 77° F | 45% | - | 0 in | - | 0 W/m² | - |
| 1788121435 | 77° F | 46% | - | 0 in | - | 0 W/m² | - |
| 1788120235 | 78° F | 44% | - | 0 in | - | 0 W/m² | - |
| 1788119035 | 80° F | 42% | - | 0 in | - | 0 W/m² | - |
| 1788117835 | 80° F | 40% | - | 0 in | - | 0 W/m² | - |
| 1788116635 | 82° F | 37% | - | 0 in | - | 0 W/m² | - |
| 1788115435 | 84° F | 35% | - | 0 in | - | 0 W/m² | - |
| 1788114235 | 85° F | 31% | - | 0 in | - | 0 W/m² | - |
| 1788113035 | 86° F | 30% | - | 0 in | - | 0 W/m² | - |
| 1788111835 | 89° F | 28% | - | 0 in | - | 0 W/m² | - |
| 1788110635 | 94° F | 26% | - | 0 in | - | 0 W/m² | - |
| 1788109435 | 98° F | 24% | - | 0 in | - | 0 W/m² | - |
| 1788108235 | 99° F | 24% | - | 0 in | - | 0 W/m² | - |
| 1788107035 | 101° F | 22% | - | 0 in | - | 0 W/m² | - |
* Rain latest hour (hover to see other rain measurements)
** Current wind speed in m/s (hover to see current wind gust speed)